EW3475 Weather Reports


Display with metric or nautical units.
time (UTC)temp
F
wind
direction
speed
MPH
gust
MPH
rain 1hr
in
rain 24hr
in
rain mn
in
humidity
%
barometer
mb
20210927141628 66 23 2.0 2.0 0.00 0.00 0.00 80 1017.8
20210927141024 66 23 1.0 1.0 0.00 0.00 0.00 80 1017.8
20210927140450 66 23 0.0 0.0 0.00 0.00 0.00 80 1017.8
20210927135917 66 23 0.0 0.0 0.00 0.00 0.00 80 1017.8
20210927135416 66 23 0.0 0.0 0.00 0.00 0.00 80 1017.8
20210927134841 66 23 0.0 0.0 0.00 0.00 0.00 80 1017.5
20210927134308 66 23 0.0 0.0 0.00 0.00 0.00 80 1017.5
20210927133734 66 23 0.0 0.0 0.00 0.00 0.00 80 1017.5
20210927133232 66 23 0.0 0.0 0.00 0.00 0.00 80 1017.5
20210927132730 66 23 0.0 0.0 0.00 0.00 0.00 80 1017.5
20210927132230 66 23 0.0 0.0 0.00 0.00 0.00 80 1017.5
20210927130841 65 23 0.0 0.0 0.00 0.00 0.00 80 1017.5
20210927130339 65 23 0.0 0.0 0.00 0.00 0.00 80 1017.5
20210927125837 65 23 0.0 0.0 0.00 0.00 0.00 80 1017.5
20210927125335 65 23 0.0 0.0 0.00 0.00 0.00 80 1017.5
20210927124802 65 23 0.0 0.0 0.00 0.00 0.00 80 1017.5
20210927124300 65 23 0.0 0.0 0.00 0.00 0.00 80 1017.5
20210927123759 65 23 0.0 0.0 0.00 0.00 0.00 80 1017.5
20210927123258 65 23 0.0 1.0 0.00 0.00 0.00 80 1017.5
20210927122757 65 23 0.0 1.0 0.00 0.00 0.00 80 1017.5
20210927122225 65 23 1.0 1.0 0.00 0.00 0.00 80 1017.5
20210927121653 65 23 1.0 1.0 0.00 0.00 0.00 80 1017.5
20210927121151 65 23 0.0 1.0 0.00 0.00 0.00 80 1017.5
20210927120649 65 23 1.0 1.0 0.00 0.00 0.00 80 1017.5
20210927120146 65 23 0.0 1.0 0.00 0.00 0.00 80 1017.5
20210927115646 65 23 1.0 1.0 0.00 0.00 0.00 80 1017.5
20210927115145 65 23 0.0 0.0 0.00 0.00 0.00 80 1017.5
20210927114539 65 23 0.0 1.0 0.00 0.00 0.00 80 1017.5
20210927114039 65 23 0.0 1.0 0.00 0.00 0.00 80 1017.5
20210927113506 65 23 1.0 1.0 0.00 0.00 0.00 80 1017.5
20210927113005 65 23 1.0 1.0 0.00 0.00 0.00 80 1017.5
20210927112400 65 23 1.0 2.0 0.00 0.00 0.00 80 1017.5
20210927111825 65 23 0.0 2.0 0.00 0.00 0.00 80 1017.5
20210927111219 65 23 2.0 2.0 0.00 0.00 0.00 80 1017.5
20210927110718 65 23 0.0 1.0 0.00 0.00 0.00 80 1017.5
20210927110217 65 23 0.0 1.0 0.00 0.00 0.00 80 1017.5
20210927105715 65 23 1.0 2.0 0.00 0.00 0.00 80 1017.5
20210927105142 65 23 2.0 2.0 0.00 0.00 0.00 80 1017.8
20210927104536 65 23 1.0 1.0 0.00 0.00 0.00 80 1017.5
20210927104035 65 23 0.0 3.0 0.00 0.00 0.00 80 1017.8
20210927103535 65 23 1.0 3.0 0.00 0.00 0.00 80 1017.8
20210927103033 65 23 1.0 2.0 0.00 0.00 0.00 79 1017.5
20210927102249 65 23 1.0 2.0 0.00 0.00 0.00 79 1017.9
20210927101749 66 23 2.0 3.0 0.00 0.00 0.00 79 1017.9
20210927101142 66 23 2.0 3.0 0.00 0.00 0.00 79 1017.9
20210927100640 66 23 1.0 3.0 0.00 0.00 0.00 79 1017.9
20210927100138 66 23 3.0 3.0 0.00 0.00 0.00 79 1017.9
20210927095558 66 23 2.0 2.0 0.00 0.00 0.00 78 1017.9
20210927095026 66 23 1.0 2.0 0.00 0.00 0.00 78 1017.9
20210927094313 66 23 1.0 3.0 0.00 0.00 0.00 78 1018.2
20210927093741 66 23 2.0 3.0 0.00 0.00 0.00 78 1018.2
20210927093240 66 23 3.0 3.0 0.00 0.00 0.00 78 1018.2
20210927092740 66 23 3.0 3.0 0.00 0.00 0.00 78 1018.2
20210927092238 66 23 2.0 4.0 0.00 0.00 0.00 78 1018.2
20210927091705 66 23 4.0 4.0 0.00 0.00 0.00 77 1018.2
20210927091204 66 23 3.0 3.0 0.00 0.00 0.00 77 1018.2
20210927090702 66 23 2.0 2.0 0.00 0.00 0.00 77 1018.2
20210927090201 66 23 2.0 3.0 0.00 0.00 0.00 77 1018.2
20210927085700 66 23 2.0 3.0 0.00 0.00 0.00 77 1017.9
20210927085158 66 23 2.0 2.0 0.00 0.00 0.00 77 1017.9
20210927084518 66 23 1.0 3.0 0.00 0.00 0.00 77 1017.9
20210927083945 66 23 3.0 3.0 0.00 0.00 0.00 77 1017.9
20210927083411 66 23 3.0 3.0 0.00 0.00 0.00 77 1017.9
20210927082805 66 23 3.0 5.0 0.00 0.00 0.00 77 1017.9
20210927082306 66 23 3.0 5.0 0.00 0.00 0.00 77 1017.9
20210927081731 66 23 0.0 2.0 0.00 0.00 0.00 76 1017.8
20210927081051 66 23 1.0 2.0 0.00 0.00 0.00 76 1018.2
20210927080517 66 23 1.0 3.0 0.00 0.00 0.00 76 1018.2
20210927075941 66 23 3.0 3.0 0.00 0.00 0.00 76 1018.2
20210927075440 66 23 2.0 3.0 0.00 0.00 0.00 76 1018.2
20210927074907 66 23 3.0 3.0 0.00 0.00 0.00 76 1018.2
20210927074334 66 23 3.0 3.0 0.00 0.00 0.00 76 1018.2
20210927073800 66 23 2.0 3.0 0.00 0.00 0.00 76 1018.2
20210927073259 67 23 3.0 3.0 0.00 0.00 0.00 76 1018.2
20210927072759 67 23 1.0 3.0 0.00 0.00 0.00 76 1017.9
20210927072227 67 23 3.0 3.0 0.00 0.00 0.00 76 1017.9
20210927071548 67 23 2.0 3.0 0.00 0.00 0.00 76 1017.9
20210927061249 67 23 2.0 2.0 0.00 0.00 0.00 76 1018.2
20210927060748 67 23 2.0 2.0 0.00 0.00 0.00 76 1018.2
20210927060247 67 23 2.0 2.0 0.00 0.00 0.00 76 1018.2
20210927055745 67 23 2.0 2.0 0.00 0.00 0.00 76 1018.2
20210927055245 67 23 2.0 2.0 0.00 0.00 0.00 76 1018.2
20210927054744 67 23 2.0 2.0 0.00 0.00 0.00 76 1018.2
20210927054138 67 23 0.0 2.0 0.00 0.00 0.00 77 1018.2
20210927053605 67 23 0.0 2.0 0.00 0.00 0.00 77 1018.2
20210927052959 67 23 2.0 2.0 0.00 0.00 0.00 76 1017.9
20210927052458 67 23 2.0 2.0 0.00 0.00 0.00 76 1017.9
20210927051925 67 23 2.0 2.0 0.00 0.00 0.00 76 1017.9
20210927051423 67 23 0.0 0.0 0.00 0.00 0.00 76 1017.9
20210927050921 67 23 0.0 2.0 0.00 0.00 0.00 76 1017.9
20210927050421 67 23 2.0 3.0 0.00 0.00 0.00 77 1017.9
20210927045920 67 23 2.0 3.0 0.00 0.00 0.00 77 1018.2
20210926213232 68 23 6.0 6.0 0.00 0.00 0.00 76 1017.6
20210926212659 68 23 6.0 6.0 0.00 0.00 0.00 76 1017.6
20210926212023 68 23 6.0 6.0 0.00 0.00 0.00 76 1017.6
20210926211522 68 23 6.0 6.0 0.00 0.00 0.00 76 1017.6
20210926211022 69 23 6.0 6.0 0.00 0.00 0.00 76 1017.6
20210926210447 69 23 4.0 5.0 0.00 0.00 0.00 76 1017.6
20210926205913 69 23 4.0 5.0 0.00 0.00 0.00 76 1017.6
20210926205413 69 23 5.0 5.0 0.00 0.00 0.00 75 1017.6
20210926204912 69 23 5.0 8.0 0.00 0.00 0.00 75 1017.9
20210926204340 69 23 8.0 8.0 0.00 0.00 0.00 75 1017.9
20210926203839 69 23 8.0 8.0 0.00 0.00 0.00 75 1017.9
20210926203338 69 23 4.0 7.0 0.00 0.00 0.00 75 1017.9
20210926202836 69 23 7.0 7.0 0.00 0.00 0.00 75 1017.9
20210926202306 69 23 6.0 7.0 0.00 0.00 0.00 75 1017.9